TELSTAR 14R

Last updated on Thu Nov 21 2024 00:02:41 GMT+0000 (Coordinated Universal Time)

1 37602U 11021A 24325.36775709 -.00000278 00000+0 00000+0 0 9999 2 37602 0.0523 101.5100 0001546 192.3381 195.4178 1.00270291 50081
UTC large
Height (km)
Speed (km/s)
/
Latitude / Longitude
Inclination (degrees)
Orbital Period (minutes)
Azimuth
Elevation
Range (km)
Doppler Factor

Next 0 passes for location: London (51.5072 / 0.1276)

Sorry there are no passes over London.